Location: Ferintosh
(52.7647°N, 112.9692°W)
Time: 15:20:56
(UTC+00:00)

S-56A Canister/Altair - Pass Details

Date: 25 May 2024
Orbit: 637 x 2489 km, 38.9° (Epoch: 20 June)

Event Time Altitude Azimuth Distance (km) Brightness Sun altitude
Rises 15:22:57 0° 253° (WSW) 5,698 11.5 33.8°
Reaches altitude 10° 15:27:26 10° 246° (WSW) 4,439 11.1 34.5°
Maximum altitude 15:37:18 35° 188° (S) 2,309 10.3 35.9°
Drops below altitude 10° 15:44:19 10° 126° (SE) 3,128 11.8 37.0°
Sets 15:46:56 0° 117° (ESE) 3,863 12.0 37.3°
